Regional Weather Roundup
Issued by NWS Green Bay, WI

Home | Current Version | Previous Version | Graphics & Text | Print | Product List | Glossary Off
Versions: 1 2 3 4 5 6 7 8 9 10 11 12 13 14 15 16 17 18 19 20 21 22 23 24 25 26 27 28 29 30 31 32 33 34 35 36 37 38 39 40 41 42 43 44 45 46 47 48 49 50

000
ASUS43 KGRB 052359
RWRGRB

NORTH-CENTRAL AND NORTHEAST WISCONSIN REGIONAL WEATHER ROUNDUP
NATIONAL WEATHER SERVICE GREEN BAY WI
600 PM CST THU MAR 05 2015

WIZ005-009-010>012-018-019-060100-
NORTH CENTRAL WISCONSIN

CITY           SKY/WX    TMP DP  RH WIND       PRES   REMARKS
IRONWOOD       CLEAR     12 -11  34 SW7       30.25F WCI   2
MANITOWISH WTR NOT AVBL
ARBOR VITAE    NOT AVBL
EAGLE RIVER    NOT AVBL
LAND O LAKES   NOT AVBL
RHINELANDER    CLEAR      8 -11  41 SW6       30.29S WCI  -2
PHILLIPS       CLEAR      7 -12  41 SW8       30.31S WCI  -5
ANTIGO         NOT AVBL
TOMAHAWK       NOT AVBL
MERRILL        NOT AVBL
$$

WIZ013-073-060100-
NORTHEAST WISCONSIN

CITY           SKY/WX    TMP DP  RH WIND       PRES   REMARKS
IRON MOUNTAIN  CLEAR     12 -10  36 SW6       30.29R WCI   3
MARINETTE      CLEAR     14  -8  37 SW7       30.38R WCI   4
$$

WIZ017-030-035>037-045-060100-
CENTRAL WISCONSIN

CITY           SKY/WX    TMP DP  RH WIND       PRES   REMARKS
MEDFORD        NOT AVBL
WAUSAU         CLEAR      7  -8  50 W6        30.36S WCI  -3
MOSINEE        CLEAR      9  -8  47 W7        30.38S WCI  -3
MARSHFIELD     CLEAR      9  -9  44 W6        30.38S WCI  -1
WISC RAPIDS    CLEAR     12  -8  40 W7        30.42S WCI   1
STEVENS POINT  NOT AVBL
WAUPACA        NOT AVBL
SHAWANO        NOT AVBL
CLINTONVILLE   NOT AVBL
$$

WIZ038-039-048-051-060100-
FOX VALLEY

CITY           SKY/WX    TMP DP  RH WIND       PRES   REMARKS
NWS GREEN BAY  CLEAR     11  -5  48 W8        30.43R WCI  -1
APPLETON       CLEAR     12  -6  44 W9        30.41S WCI   0
OSHKOSH        CLEAR     13  -4  46 SW3       30.43R
FOND DU LAC    CLEAR     13  -4  46 SW6       30.44R WCI   4
$$

WIZ022-050-052-060100-
EAST CENTRAL WISCONSIN

CITY           SKY/WX    TMP DP  RH WIND       PRES   REMARKS
STURGEON BAY   CLEAR     10  -6  48 SW9       30.41S WCI  -2
MANITOWOC      NOT AVBL
SHEBOYGAN      CLEAR      9  -4  55 SW8       30.45R WCI  -3
$$

LMZ563-521-522-541>543-060100-
LAKESHORE

STATION/POSITION TIME  TEMP    WIND        PRES    VSBY  WAVE
                       AIR SEA DIR/SP/G                  HT/PER
                 (UTC) (F)     (DEG/KT/KT) (MB)    (MI)  (FT/S)
SHEBOYGAN LKSHOR 2300   15     280/  9/ 10 1032.8S
KEWAUNEE LKSHORE 2300   13     240/  6/ 10 1029.2S
NORTHPORT PIER   2300   15     200/  3/  9 1028.8S
CHAMBERS ISLAND  2300   11     180/  8/ 14 1028.8S
MENOMINEE LKSHOR 2300   13     190/  8     1029.4R
$$



USA.gov is the U.S. government's official web portal to all federal, state and local government web resources and services.